Terug naar catalogus

STARLINK-35692

ActiefCommunicatieVLEO
NORAD 66513·PAYLOAD·🇺🇸 United States

Gelanceerd Nov 15, 2025 vanaf Cape Canaveral Space Force Station

Loading…

Volgende Passages (komende 24 uur)

TLE

VersSource: CelesTrak SupGP

Epoch: Sep 15, 2026, 02:47 UTC

1 66513C 25263AE  26258.11645833  .00026157  00000+0  94723-3 0  2589
2 66513  43.0037   1.0668 0001764 264.5478 231.8232 15.27571600    11

Volg STARLINK-35692 in realtime met AllMySat

Download on the App Store